Location: Amsterdam
(30.7274°N, 84.4357°W)
Time: 11:55:15
(UTC+00:00)

Courier 1B Rocket - Pass Details

Date: 07 February 2026
Orbit: 920 x 1201 km, 28.2° (Epoch: 17 March)

Event Time Altitude Azimuth Distance (km) Brightness Sun altitude
Rises 09:24:53 0° 275° (W) 4,034 - -39.1°
Reaches altitude 10° 09:27:45 10° 271° (W) 3,095 - -38.5°
Maximum altitude 09:35:12 51° 198° (SSW) 1,465 - -36.9°
Exits shadow 09:37:15 42° 156° (SSE) 1,648 6.2 -36.4°
Drops below altitude 10° 09:42:41 10° 124° (SE) 3,110 8.2 -35.3°
Sets 09:45:35 0° 120° (ESE) 4,055 9.0 -34.6°
